Portada
METAR-TAF:

METAR-TAF

Aeropuertos :

Broken Bow, Nebraska, Estados Unidos

latitud: 41-26N, longitud: 099-39W, altitud: 776 m

Observación

El informe se hizo hace 58 minutos, a las 20:53 UTC
Viento 11 kt del norte-noroeste
Temperatura -1°C
Humedad 69%
Presión 1030 hPa
Visibilidad: 16.1 km
Cielo cubierto a una altura de 2100 ft

METAR: KBBW 232053Z AUTO 34011KT 10SM OVC021 M01/M06 A3041 RMK AO2 SLP326 T10111056 58016

Hora: 16:51 (21:51 UTC)


TAF: falta

Observaciones y pronósticos meteorológicos de más de 4000 aeropuertos (mensajes METAR y TAF).

Los puntos amarillos y rojos representan las estaciones disponibles.

Ponga el ratón en el punto deseado para ver el nombre de la estación.

Haga clic para ver las observaciones y los pronósticos meteorológicos.

Para cambiar el mapa : haga clic en los botones verdes con una cruz de color negro para hacer un zoom, en el botón verde con un guión para alejar o en las flechas verdes para mapas adyacentes.


METAR-TAF: